Home   Weather   Lowell   Past weeks

Flag for USA Past Weather in Lowell, Massachusetts, USA — Yesterday and Last 2 Weeks

Now
47 °F

Overcast.


Feels Like: 44 °F
Forecast: 46 / 58 °F
Wind: 6 mph from South

Location: Hanscom Field

Current Time: May 1, 2017 at 2:37:12 am

Latest Report: May 1, 2017 at 1:56 am


Visibility: 10 mi

Pressure: 30.20 "Hg

Humidity: 61%

Dew Point: 34 °F

Location of LowellLocation

Past Weather in Lowell — Graph

°F

Lowell Temperature Yesterday

Maximum temperature yesterday: 61 °F (at 12:56 am)
Minimum temperature yesterday: 45 °F (at 5:41 pm)
Average temperature yesterday: 50 °F

High & Low Weather Summary for the Past Weeks

 TemperatureHumidityPressure
High86 °F (Apr 16, 1:56 pm)96% (Apr 23, 12:04 am)30.62 "Hg (Apr 23, 12:04 am)
Low34 °F (Apr 23, 2:56 am)17% (Apr 17, 12:56 pm)29.65 "Hg (Apr 16, 6:56 pm)
Average53 °F70%30.07 "Hg
* Reported Apr 16 12:56 am — May 1 12:56 am, Lowell, Weather by CustomWeather, © 2017

Note: Actual official high and low records may vary slightly from our data, if they occured in-between our weather recording intervals... More about our weather records

Advertising

Lowell Weather History for the Previous 24 Hours

Scroll right to see more
 ConditionsComfort  
Time TempWeatherWind HumidityBarometerVisibility
12:56 am
Mon, May 1
48 °FOvercast.6 mph61%30.24 "Hg10 mi
11:56 pm
Sun, Apr 30
48 °FOvercast.8 mph63%30.26 "Hg10 mi
10:56 pm47 °FOvercast.7 mph71%30.27 "Hg10 mi
9:56 pm47 °FOvercast.7 mph71%30.29 "Hg10 mi
8:56 pm47 °FOvercast.9 mph64%30.28 "Hg10 mi
7:56 pm47 °FOvercast.8 mph69%30.29 "Hg10 mi
6:56 pm47 °FOvercast.7 mph69%30.28 "Hg10 mi
5:56 pm45 °FOvercast.8 mph80%30.28 "Hg10 mi
5:41 pm45 °FOvercast.7 mph80%30.24 "Hg10 mi
5:26 pm46 °FThundershowers. Overcast.7 mph77%30.24 "Hg10 mi
4:56 pm47 °FLight rain. Overcast.9 mph61%30.28 "Hg10 mi
3:56 pm50 °FPartly sunny.10 mph54%30.29 "Hg10 mi
2:56 pm50 °FPartly sunny.10 mph59%30.30 "Hg10 mi
1:56 pm52 °FScattered clouds.12 mph53%30.32 "Hg10 mi
12:56 pm54 °FBroken clouds.5 mph43%30.32 "Hg10 mi
11:56 am54 °FScattered clouds.9 mph43%30.32 "Hg10 mi
10:56 am54 °FScattered clouds.5 mph35%30.30 "Hg10 mi
9:56 am53 °FSunny.5 mph38%30.30 "Hg10 mi
8:56 am51 °FScattered clouds.7 mph38%30.32 "Hg10 mi
7:56 am49 °FScattered clouds.10 mph39%30.31 "Hg10 mi
6:56 am48 °FSunny.8 mph43%30.29 "Hg10 mi
5:56 am47 °FSunny.8 mph46%30.24 "Hg10 mi
4:56 am50 °FClear.9 mph44%30.21 "Hg10 mi
3:56 am54 °FClear.10 mph43%30.19 "Hg10 mi
2:56 am56 °FClear.9 mph42%30.16 "Hg10 mi
Weather by CustomWeather, © 2017

See weather overviewHow to use our weather pages